Location: Berlin
(42.3812°N, 71.6370°W)
Time: 22:52:30
(UTC+00:00)

Cosmos 1624 Rocket - Pass Details

Date: 15 November 2025
Orbit: 753 x 779 km, 74.0° (Epoch: 09 December)

Event Time Altitude Azimuth Distance (km) Brightness Sun altitude
Exits shadow 09:34:28 14° 203° (SSW) 1,980 6.0 -22.7°
Maximum altitude 09:38:52 81° 290° (WNW) 767 3.8 -21.9°
Drops below altitude 10° 09:44:03 10° 18° (NNE) 2,285 6.6 -21.0°
Sets 09:46:26 0° 20° (NNE) 3,215 7.4 -20.5°
